Home > Weather > Brattleboro > Past weeks

Flag for USA Weather for the Past 2 Weeks in Brattleboro, Vermont, USA

Now
48 °F

Broken clouds.


Feels Like: 46 °F
Forecast: 40 / 53 °F
Wind: 5 mph from Southwest

Location: Keene / Dillant

Current Time: May 1, 2016 at 10:05:50 AM

Latest Report: May 1, 2016 at 9:35 AM


Visibility: 10 mi

Pressure: 30.22 "Hg

Humidity: 66%

Dew Point: 37 °F

Location of BrattleboroLocation

Historic Weather in Brattleboro — Graph

°F

Brattleboro Temperature Yesterday

Maximum temperature yesterday: 66 °F (at 5:55 PM)
Minimum temperature yesterday: 41 °F (at 6:35 AM)
Average temperature yesterday: 57 °F

High & Low Weather Summary for the Past Weeks

 TemperatureHumidityPressure
High75 °F (Apr 17, 5:15 PM)100% (Apr 27, 4:55 AM)30.52 "Hg (Apr 27, 4:55 AM)
Low27 °F (Apr 24, 6:15 AM)12% (Apr 16, 2:35 PM)28.54 "Hg (Apr 27, 10:35 PM)
Average50 °F49%30.07 "Hg
* Reported Apr 16 9:15 AM — May 1 9:15 AM, Brattleboro, Weather by CustomWeather, © 2016

Note: Actual official high and low records may vary slightly from our data, if they occured in-between our weather recording intervals... More about our weather records

Advertising

Brattleboro Weather History for the Previous 24 Hours

Scroll right to see more
 ConditionsComfort  
Time TempWeatherWind HumidityBarometerVisibility
9:15 AM
Sun, May 1
48 °FPassing clouds.6 mph62%30.22 "Hg10 mi
8:35 AM48 °FSunny.3 mph62%30.23 "Hg10 mi
8:15 AM46 °FSunny.3 mph66%30.23 "Hg10 mi
7:55 AM46 °FSunny.5 mph66%30.23 "Hg10 mi
7:35 AM46 °FSunny.No wind62%30.22 "Hg10 mi
7:15 AM46 °FSunny.No wind62%30.22 "Hg10 mi
6:55 AM45 °FSunny.No wind71%30.23 "Hg10 mi
6:35 AM45 °FClear.No wind71%30.23 "Hg10 mi
6:15 AM45 °FClear.3 mph71%30.22 "Hg10 mi
5:55 AM45 °FClear.3 mph71%30.22 "Hg10 mi
5:35 AM45 °FClear.No wind71%30.21 "Hg10 mi
5:15 AM45 °FClear.3 mph66%30.21 "Hg10 mi
4:55 AM45 °FClear.3 mph66%30.21 "Hg10 mi
4:35 AM45 °FClear.No wind66%30.20 "Hg10 mi
4:15 AM45 °FClear.No wind66%30.21 "Hg10 mi
3:55 AM45 °FClear.No wind66%30.20 "Hg10 mi
2:55 AM45 °FClear.3 mph71%30.21 "Hg10 mi
2:35 AM45 °FClear.No wind66%30.20 "Hg10 mi
1:55 AM46 °FClear.No wind62%30.21 "Hg10 mi
1:35 AM46 °FClear.No wind62%30.21 "Hg10 mi
12:35 AM50 °FClear.8 mph54%30.21 "Hg10 mi
11:55 PM
Sat, Apr 30
50 °FClear.8 mph54%30.21 "Hg10 mi
11:15 PM52 °FCool.13 mph54%30.20 "HgN/A
9:35 PM52 °FPassing clouds.No wind62%30.18 "Hg10 mi
9:15 PM54 °FPassing clouds.No wind58%30.18 "Hg10 mi
8:55 PM54 °FPassing clouds.No wind58%30.17 "Hg10 mi
8:15 PM55 °FScattered clouds.No wind51%30.17 "Hg10 mi
7:55 PM57 °FPassing clouds.No wind48%30.17 "Hg10 mi
7:35 PM59 °FSunny.3 mph42%30.16 "Hg10 mi
7:15 PM63 °FSunny.6 mph37%30.15 "Hg10 mi
6:55 PM64 °FSunny.3 mph34%30.14 "Hg10 mi
6:35 PM64 °FSunny.9 mph34%30.14 "Hg10 mi
6:15 PM64 °FSunny.9 mph34%30.14 "Hg10 mi
5:55 PM66 °FPartly sunny.9 mph32%30.15 "Hg10 mi
5:35 PM64 °FOvercast.6 mph34%30.15 "Hg10 mi
4:55 PM64 °FPartly sunny.8 mph34%30.14 "Hg10 mi
4:35 PM64 °FPartly sunny.8 mph32%30.14 "Hg10 mi
4:15 PM64 °FSunny.8 mph32%30.14 "Hg10 mi
3:55 PM64 °FPassing clouds.7 mph32%30.15 "Hg10 mi
3:35 PM64 °FSunny.3 mph32%30.14 "Hg10 mi
3:15 PM63 °FSunny.No wind34%30.14 "Hg10 mi
2:55 PM63 °FSunny.5 mph32%30.15 "Hg10 mi
2:35 PM64 °FScattered clouds.No wind30%30.15 "Hg10 mi
2:15 PM64 °FScattered clouds.No wind30%30.14 "Hg10 mi
1:55 PM64 °FSunny.8 mph30%30.14 "Hg10 mi
1:35 PM64 °FSunny.5 mph30%30.15 "Hg10 mi
1:15 PM63 °FSunny.No wind30%30.15 "Hg10 mi
12:55 PM63 °FSunny.9 mph30%30.16 "Hg10 mi
12:35 PM61 °FSunny.No wind31%30.16 "Hg10 mi
12:15 PM61 °FSunny.No wind31%30.16 "Hg10 mi
11:55 AM61 °FSunny.5 mph34%30.17 "Hg10 mi
11:35 AM57 °FSunny.5 mph39%30.18 "Hg10 mi
11:15 AM57 °FSunny.No wind39%30.19 "Hg10 mi
10:55 AM55 °FPassing clouds.3 mph41%30.19 "Hg10 mi
10:35 AM54 °FPartly sunny.No wind44%30.20 "Hg10 mi
10:15 AM54 °FPartly sunny.5 mph47%30.21 "Hg10 mi
Weather by CustomWeather, © 2016

See weather overviewHow to use our weather pages